Location: Newark
(45.5000°N, 11.4167°E)
Time: 18:05:34
(UTC+00:00)

Explorer 11/Cluster Stage 4 - Pass Details

Date: 22 August 2019
Orbit: 467 x 1259 km, 28.8° (Epoch: 15 October)

Event Time Altitude Azimuth Distance (km) Brightness Sun altitude
Rises 13:23:04 0° 250° (WSW) 4,159 10.9 47.0°
Reaches altitude 10° 13:27:05 10° 234° (SW) 3,118 10.6 46.4°
Maximum altitude 13:32:01 18° 194° (SSW) 2,417 10.0 45.8°
Drops below altitude 10° 13:36:32 10° 154° (SSE) 2,810 9.6 45.1°
Sets 13:39:54 0° 136° (SE) 3,608 9.9 44.7°
